Weather History for K8D3 - July, 2013

Change the Weather History Date:

Wednesday, July 3, 2013

  Actual Average Record
Temperature  
Mean Temperature 72 °F 70 °F  
Max Temperature 86 °F 82 °F 105 °F (1949)
Min Temperature 57 °F 59 °F 45 °F (1969)
Degree Days  
Heating Degree Days 0 1  
Month to date heating degree days 0 3  
Since 1 June heating degree days 69 65  
Since 1 July heating degree days 0 3  
Cooling Degree Days 7 6  
Month to date cooling degree days 20 17  
Year to date cooling degree days 162 134  
Since 1 June cooling degree days 137 111  
Growing Degree Days 20 (Base 50)    
Moisture  
Dew Point 56 °F    
Average Humidity 63    
Maximum Humidity 93    
Minimum Humidity 32    
Precipitation  
Precipitation 0.00 in 0.11 in 3.17 in (1905)
Month to date precipitation 0.00 0.33  
Year to date precipitation 14.92 11.05  
Sea Level Pressure  
Sea Level Pressure 29.93 in    
Wind  
Wind Speed 5 mph (South)    
Max Wind Speed 15 mph    
Max Gust Speed 18 mph    
T = Trace of Precipitation, MM = Missing Value Source: NWS Daily Summary

Daily Weather History Graph

Daily Weather History Graph

Search for Another Location

Airport or City:

Trip Planner

Search our weather history database for the weather conditions in past years. The results will help you decide how hot, cold, wet, or windy it might be!

Date:

Astronomy

Jul. 03, 2013 Rise Set
Actual Time 5:43 AM CDT 9:20 PM CDT
Civil Twilight 5:06 AM CDT 9:58 PM CDT
Nautical Twilight 4:15 AM CDT 10:48 PM CDT
Astronomical Twilight 3:08 AM CDT 11:55 PM CDT
Moon 2:29 AM CDT (7/3) 5:27 PM CDT (7/3)
Length of Visible Light 16h 52m
Length of Day
15h 36m
Waning Crescent, 18% of the Moon is Illuminated
Jul 3
Waning Crescent
Jul 8
New
Jul 15
First Quarter
Jul 22
Full
Jul 29
Last Quarter

Hourly Weather History & Observations

Time (CDT) Temp. Heat Index Dew Point Humidity Pressure Visibility Wind Dir Wind Speed Gust Speed Precip Events Conditions
12:56 AM 61.0 °F - 57.0 °F 87% 30.00 in - SW 4.6 mph - N/A   Unknown
1:56 AM 61.0 °F - 57.9 °F 90% 29.99 in - Calm Calm - N/A   Unknown
2:56 AM 61.0 °F - 57.0 °F 87% 29.98 in - Calm Calm - N/A   Unknown
3:56 AM 61.0 °F - 55.9 °F 83% 29.97 in - Calm Calm - N/A   Unknown
4:56 AM 59.0 °F - 55.0 °F 87% 29.97 in - Calm Calm - N/A   Unknown
5:56 AM 57.0 °F - 55.9 °F 96% 29.99 in - SSE 4.6 mph - N/A   Unknown
6:56 AM 61.0 °F - 57.9 °F 90% 29.99 in - Calm Calm - N/A   Unknown
7:56 AM 66.9 °F - 60.1 °F 79% 29.98 in - Calm Calm - N/A   Unknown
8:56 AM 73.0 °F - 59.0 °F 61% 29.98 in - South 3.5 mph - N/A   Unknown
9:56 AM 78.1 °F - 60.1 °F 54% 29.97 in - South 3.5 mph - N/A   Unknown
10:56 AM 81.0 °F 80.8 °F 55.9 °F 42% 29.95 in - South 5.8 mph - N/A   Unknown
11:56 AM 82.9 °F 82.1 °F 55.9 °F 39% 29.95 in - SSE 6.9 mph - N/A   Unknown
12:56 PM 82.9 °F 82.0 °F 55.0 °F 38% 29.94 in - SSW 5.8 mph - N/A   Unknown
1:56 PM 84.9 °F 83.2 °F 53.1 °F 33% 29.92 in - SSE 8.1 mph - N/A   Unknown
2:56 PM 84.9 °F 83.2 °F 53.1 °F 33% 29.91 in - SSE 9.2 mph - N/A   Unknown
3:56 PM 84.9 °F 83.2 °F 53.1 °F 33% 29.89 in - South 13.8 mph - N/A   Unknown
4:56 PM 84.0 °F - 52.0 °F 33% 29.89 in - SSE 8.1 mph - N/A   Unknown
5:56 PM 84.0 °F 82.6 °F 54.0 °F 35% 29.88 in - South 10.4 mph - N/A   Unknown
6:56 PM 82.0 °F 81.3 °F 54.0 °F 38% 29.86 in - SSE 11.5 mph - N/A   Unknown
7:56 PM 80.1 °F 80.0 °F 54.0 °F 40% 29.85 in - SSE 9.2 mph - N/A   Unknown
8:56 PM 75.9 °F - 54.0 °F 46% 29.84 in - SSE 8.1 mph - N/A   Unknown
9:56 PM 72.0 °F - 55.9 °F 57% 29.85 in - South 6.9 mph - N/A   Unknown
10:56 PM 66.9 °F - 55.9 °F 68% 29.85 in - South 4.6 mph - N/A   Unknown
11:56 PM 64.0 °F - 57.0 °F 78% 29.85 in - South 4.6 mph - N/A   Unknown